MORELOS 3

Last updated on Wed Sep 09 2026 00:03:01 GMT+0000 (Coordinated Universal Time)

1 40946U 15056A 26251.49396883 -.00000062 00000+0 00000+0 0 9993 2 40946 3.2618 17.0980 0003006 185.1061 210.0871 1.00272517 40122
UTC large
Height (km)
Speed (km/s)
/
Latitude / Longitude
Inclination (degrees)
Orbital Period (minutes)
Azimuth
Elevation
Range (km)
Doppler Factor

Next 0 passes for location: London (51.5072 / 0.1276)

No passes found over London.
MORELOS 3